Regional Weather Roundup
Issued by NWS Little Rock, AR

Home | Current Version | Previous Version | Graphics & Text | Print | Product List | Glossary On
Versions: 1 2 3 4 5 6 7 8 9 10 11 12 13 14 15 16 17 18 19 20 21 22 23 24 25 26 27 28 29 30 31 32 33 34 35 36 37 38 39 40 41 42 43 44 45 46 47 48 49 50
000
ASUS44 KLZK 300705
RWRLZK

WEATHER ROUNDUP FOR ARKANSAS
NATIONAL WEATHER SERVICE LITTLE ROCK AR
100 AM CST FRI JAN 30 2015

NOTE: "FAIR" INDICATES FEW OR NO CLOUDS BELOW 12,000 FEET WITH NO
SIGNIFICANT WEATHER AND/OR OBSTRUCTIONS TO VISIBILITY.

ARZ001-003-010-029-300800-
NORTHWEST ARKANSAS

CITY           SKY/WX    TMP DP  RH WIND       PRES   REMARKS
FAYETTEVILLE   CLEAR     32  26  78 CALM      30.50R
FORT SMITH     PTCLDY    39  28  64 NW6       30.50S
HARRISON       FAIR      31  26  82 NW7       30.47S WCI  24
BENTONVILLE    CLEAR     32  25  74 N5        30.51R WCI  27
ROGERS         CLEAR     31  26  82 NW3       30.50S
SILOAM SPGS    CLEAR     30  19  64 NE7       30.52R WCI  23
HIGHFILL       CLEAR     29  23  78 N6        30.50R WCI  23
$$

ARZ004-005-016-300800-
NORTH CENTRAL ARKANSAS

CITY           SKY/WX    TMP DP  RH WIND       PRES   REMARKS
BATESVILLE     CLEAR     37  27  65 CALM      30.47R
FLIPPIN        CLEAR     34  25  69 NW7       30.48R WCI  28
MTN HOME       CLEAR     32  26  78 NW6       30.46S WCI  26
$$

ARZ040-041-300800-
WEST CENTRAL ARKANSAS

CITY           SKY/WX    TMP DP  RH WIND       PRES   REMARKS
MENA           PTCLDY    43  32  65 CALM      30.45S
MOUNT IDA      PTCLDY    33  29  85 CALM      30.43S
$$

ARZ009-017-025-026-028-300800-
NORTHEAST ARKANSAS

CITY           SKY/WX    TMP DP  RH WIND       PRES   REMARKS
CORNING        CLOUDY    37  28  70 NW9       30.45R
JONESBORO      CLEAR     32  28  85 W5        30.44R WCI  27
NEWPORT        CLEAR     34  28  79 NW9       30.47R WCI  27
WALNUT RIDGE   CLEAR     30  21  69 NW7       30.45R WCI  23
BLYTHEVILLE    CLOUDY    40  33  76 N12       30.42S
$$

ARZ022-023-033-042-044-300800-
CENTRAL ARKANSAS

CITY           SKY/WX    TMP DP  RH WIND       PRES   REMARKS
LITTLE ROCK    CLEAR     38  29  70 N9        30.47S
N LITTLE ROCK    N/A     38  32  77 NW5       30.47S
JACKSONVILLE   CLEAR     32  27  81 CALM      30.46S
SEARCY         CLEAR     29  28  96 NW3       30.48S
HOT SPRINGS    PTCLDY    40  29  64 VRB5      30.46S
RUSSELLVILLE   CLEAR     30  27  88 CALM      30.47F
CLINTON        FAIR      37  28  70 N5        30.48S
$$

ARZ036-300800-
EAST ARKANSAS

CITY           SKY/WX    TMP DP  RH WIND       PRES   REMARKS
WEST MEMPHIS   CLEAR     36  30  79 NW5       30.42S
$$

ARZ050-053-066-070-073-300800-
SOUTHWEST ARKANSAS

CITY           SKY/WX    TMP DP  RH WIND       PRES   REMARKS
ARKADELPHIA    FAIR      37  34  89 CALM      30.48S
CAMDEN         CLEAR     36  30  80 CALM      30.47S
TEXARKANA      PTCLDY    42  32  67 NE6       30.46S
EL DORADO      CLEAR     42  30  62 N7        30.45S
DE QUEEN       PTCLDY    36  32  85 CALM      30.46S
$$

ARZ056-057-069-300800-
SOUTHEAST ARKANSAS

CITY           SKY/WX    TMP DP  RH WIND       PRES   REMARKS
PINE BLUFF     CLEAR     36  29  75 N3        30.46S
STUTTGART      CLEAR     36  28  75 NW6       30.45F
MONTICELLO     FAIR      42  32  67 CALM      30.44S

$$





USA.gov is the U.S. government's official web portal to all federal, state and local government web resources and services.